User: anonymous   Login
Location: Rometta
(44.2000°N, 10.0500°E)
Time: 23:32:29
(UTC+00:00)
Language:

FengYun 1-2 T - Orbit

View from above orbital plane
View from above orbital plane
View from above satellite
View from above satellite

Ground track
Ground track

The orbit data is extracted from the following two-line orbital elements,

1 20855U 90081T   21104.53431235  .00000003  00000-0  26314-4 0  9995
2 20855  98.7048 115.6325 0025128  76.1084  34.9824 14.08691337573226
Epoch (UTC): 14 April 2021 12:49:24
Eccentricity: 0.0025128
inclination: 98.7048°
perigee height: 845 km
apogee height: 882 km
right ascension of ascending node: 115.6325°
argument of perigee: 76.1084°
revolutions per day: 14.08691337
mean anomaly at epoch: 34.9824°
orbit number at epoch: 57322

The dashed part of the orbit path shows where the satellite is in the earth's shadow,  

DLR